Weather Service Report


837 
ASUS44 KLIX 230910
RWRLIX
NEW ORLEANS REGIONAL WEATHER ROUNDUP
NATIONAL WEATHER SERVICE NEW ORLEANS LA
400 AM CDT TUE SEP 23 2014

NOTE: "FAIR" INDICATES FEW OR NO CLOUDS BELOW 12,000 FEET WITH NO
      SIGNIFICANT WEATHER AND/OR OBSTRUCTIONS TO VISIBILITY.
      SKY/WX - SKY CONDITION AND SIGNIFICANT WEATHER.
      TMP - AIR TEMPERATURE.     DP    - DEWPOINT TEMPERATURE.
      RH  - RELATIVE HUMIDITY.   PRES  - PRESSURE.
      HI  - HEAT INDEX.          WCI   - WIND CHILL INDEX.

*  THESE STATIONS ARE NOT NWS OR FAA STATIONS AND ARE NOT UNDER
   NWS QUALITY CONTROL. 

LAZ038-040-048-061>063-065>067-069-231000-
SOUTHEAST LOUISIANA
  
CITY           SKY/WX    TMP DP  RH WIND       PRES   REMARKS
N.O. AUDUBON     N/A     71  55  56 MISG        N/A                   
N.O. INTL ARPT CLEAR     72  56  57 NE16      30.05R                  
N.O. LAKEFRONT CLEAR     73  58  59 NE22      30.05S                  
N.O. DOWNTOWN*   N/A     72  52  49 NE6       30.05S                  
SLIDELL        CLEAR     62  54  74 N6        30.06S                  
BATON ROUGE    CLEAR     61  55  81 NE7       30.08S                  
BOOTHVILLE     MOCLDY    80  65  59 NE14      30.01S                  
BELLE CHASSE   CLEAR     69  55  60 NE9       30.04S                  
BOGALUSA*        N/A     60  54  80 NE5       30.09S                  
GALLIANO*      NOT AVBL                                               
NEW ROADS*       N/A     64  54  69 NE7       30.08F                  
GONZALES*        N/A     62  59  87 N5        30.06S                  
HAMMOND*       CLEAR     63  52  67 N3        30.09S                  
HOUMA*         CLEAR     66  50  56 NE3       30.04R                  
PORT FOURCHON* MOSUNNY   77  66  69 NE15      30.04S                  

$$

MSZ070-080>082-231000-
SOUTHERN MISSISSIPPI
  
CITY           SKY/WX    TMP DP  RH WIND       PRES   REMARKS
MCCOMB         CLEAR     62  53  72 N7        30.10S                  
GULFPORT       CLEAR     64  53  67 N6        30.06R                  
BILOXI         CLEAR     64  55  71 NE8       30.06R                  
PASCAGOULA     CLEAR     56  54  93 N5        30.06S                  

$$

COASTAL OBSERVATIONS
LAKE AND NEARSHORE STATIONS
  
STATION/POSITION TIME  TEMP    WIND        PRES    WAVE
                       AIR SEA DIR/SP/G            HT/PER
                 (UTC) (F)     (DEG/KT/KT) (MB)    (FT/S)
PASCAGOULA       0900   66      20/  8/ 11 1017.0
WAVELAND YACHT   0900   68      40/ 13/ 16 1017.1
GRAND ISLE       0900   76 82   50/ 11/ 17 1016.6
SOUTHWEST PASS   0900   84 89   60/ 18/ 21 1015.8
NEW CANAL        0900   74 79   60/ 20/ 23 1017.5
SHELL BEACH      0900   74 76   40/ 21/ 23 1016.6

OFFSHORE STATIONS
  
STATION/POSITION TIME  TEMP    WIND        PRES    WAVE
                       AIR SEA DIR/SP/G            HT/PER
                 (UTC) (F)     (DEG/KT/KT) (MB)    (FT/S)
64 S DAUPHIN ISL 0809   80 83   60/ 19/ 23 1015.6    5/ 6

$$



840 
ASUS44 KLIX 230910
RWRLA 
LOUISIANA WEATHER ROUNDUP
NATIONAL WEATHER SERVICE NEW ORLEANS LA
400 AM CDT TUE SEP 23 2014

NOTE: "FAIR" INDICATES FEW OR NO CLOUDS BELOW 12,000 FEET WITH NO
      SIGNIFICANT WEATHER AND/OR OBSTRUCTIONS TO VISIBILITY.
      SKY/WX - SKY CONDITION AND SIGNIFICANT WEATHER.
      TMP - AIR TEMPERATURE.    DP   - DEWPOINT TEMPERATURE.
      RH  - RELATIVE HUMIDITY.  PRES - PRESSURE.
      HX  - HEAT INDEX.         WCI  - WIND CHILL INDEX.

*  THESE STATIONS ARE NOT NWS OR FAA STATIONS AND ARE NOT UNDER
   NWS QUALITY CONTROL.

LAZ040-048-061>063-065-066-069-231000-
SOUTHEAST LOUISIANA
  
CITY           SKY/WX    TMP DP  RH WIND       PRES   REMARKS
N.O. AUDUBON     N/A     71  55  56 MISG        N/A                   
N.O. INTL ARPT CLEAR     72  56  57 NE16      30.05R                  
N.O. LAKEFRONT CLEAR     73  58  59 NE22      30.05S                  
N.O. DOWNTOWN* FAIR      72  52  49 NE6       30.05S                  
SLIDELL        CLEAR     62  54  74 N6        30.06S                  
BATON ROUGE    CLEAR     61  55  81 NE7       30.08S                  
BOOTHVILLE     MOCLDY    80  65  59 NE14      30.01S                  
BELLE CHASSE   CLEAR     69  55  60 NE9       30.04S                  
BOGALUSA*      FAIR      60  54  80 NE5       30.09S                  
GALLIANO*      NOT AVBL                                               
NEW ROADS*     FAIR      64  54  69 NE7       30.08F                  
GONZALES*      FAIR      62  59  87 N5        30.06S                  
HAMMOND*       CLEAR     63  52  67 N3        30.09S                  
HOUMA*         CLEAR     66  50  56 NE3       30.04R                  
PORT FOURCHON* MOSUNNY   77  66  69 NE15      30.04S                  

$$

LAZ041-044-053-054-231000-
SOUTHWEST LOUISIANA
  
CITY           SKY/WX    TMP DP  RH WIND       PRES   REMARKS
LAKE CHARLES   CLEAR     65  55  70 NE10      30.07S                  
LAFAYETTE      CLEAR     62  58  86 N8        30.07F                  
PATTERSON      CLEAR     64  59  82 NE5       30.07S                  
SALT POINT       N/A     69  60  73 VRB3      30.03F                  
NEW IBERIA     CLEAR     66  57  72 NE9       30.07S                  
CHENAULT AIRPK CLEAR     63  56  80 N7        30.08S                  

$$

LAZ027-028-231000-
CENTRAL LOUISIANA
  
CITY           SKY/WX    TMP DP  RH WIND       PRES   REMARKS
FORT POLK      CLEAR     63  55  74 NE5       30.11S                  
ALEXANDRIA INT CLEAR     61  54  77 NE6       30.10F                  
ALEXANDRIA     CLEAR     60  55  83 CALM      30.12S                  

$$

LAZ001-002-231000-
NORTHWEST LOUISIANA
  
CITY           SKY/WX    TMP DP  RH WIND       PRES   REMARKS
SHREVEPORT     CLEAR     62  52  69 E6        30.15R                  
BARKSDALE AFB  CLEAR     58  52  80 N5        30.15S                  
DTN SHREVEPORT CLEAR     59  53  80 CALM      30.16R                  

$$

LAZ014-016-231000-
NORTHEAST LOUISIANA
  
CITY           SKY/WX    TMP DP  RH WIND       PRES   REMARKS
MONROE         CLEAR     60  53  77 NE5       30.15F                  
TALLULAH       CLEAR     59  55  87 N3        30.14S                  

$$


Return to Home page


Western Regional Climate Center, wrcc@dri.edu